Location: �bnet
(46.9957°N, 8.4908°E)
Time: 15:29:09
(UTC+00:00)

Cosmos 1242 Rocket - Pass Details

Date: 11 May 2021
Orbit: 446 x 484 km, 81.2° (Epoch: 17 June)

Event Time Altitude Azimuth Distance (km) Brightness Sun altitude
Rises 20:24:23 0° 210° (SSW) 2,512 6.0 -13.6°
Reaches altitude 10° 20:26:37 10° 220° (SW) 1,633 5.2 -13.9°
Maximum altitude 20:29:54 34° 287° (WNW) 796 4.2 -14.2°
Drops below altitude 10° 20:33:10 10° 354° (N) 1,625 6.1 -14.6°
Sets 20:35:23 0° 4° (N) 2,498 6.9 -14.9°
